Regional Weather Roundup
Issued by NWS

Home | Current Version | Previous Version | Graphics & Text | Print | Product List | Glossary On
Versions: 1 2 3 4 5 6 7 8 9 10 11 12 13 14 15 16 17 18 19 20 21 22 23 24 25 26 27 28 29 30 31 32 33 34 35 36 37 38 39 40 41 42 43 44 45 46 47 48 49 50
000
ASUS43 KDTX 281610
RWRMI
MICHIGAN HOURLY REGIONAL WEATHER ROUNDUP
NATIONAL WEATHER SERVICE DETROIT/PONTIAC MI
1200 PM EDT SAT MAY 28 2016

NOTE: "FAIR" INDICATES FEW OR NO CLOUDS BELOW 12,000 FEET WITH NO
SIGNIFICANT WEATHER AND/OR OBSTRUCTION TO VISIBILITY.

MIZ047>049-052>055-059>063-066>070-074>076-081>083-281700-
SOUTHEAST LOWER MICHIGAN

CITY           SKY/WX    TMP DP  RH WIND       PRES   REMARKS
ADRIAN         CLOUDY    83  64  52 SW13G22   30.06S
ALMA           CLOUDY    76  67  73 S14       30.01R
ANN ARBOR      MOSUNNY   82  66  58 S10       30.04F
BAD AXE        PTSUNNY   83  66  56 SW14G20   30.02S
CARO           PTSUNNY   83  66  57 S13G20    30.01S
DETROIT CITY   SUNNY     83  66  56 S13       30.05S
DETROIT        CLOUDY    85  65  51 SW8       30.05S
FLINT          CLOUDY    83  63  50 SW13G22   30.03S
GROSSE ILE     SUNNY     75  68  78 SE8       30.05S
HILLSDALE      CLOUDY    76  63  64 S10G16    30.05S
HOWELL         CLOUDY    76  64  66 S8        30.04F

CITY           SKY/WX    TMP DP  RH WIND       PRES   REMARKS
JACKSON        CLOUDY    75  67  76 S8        30.04S
LAMBERTVILLE   SUNNY     85  66  52 SW3       30.06S
LANSING        CLOUDY    77  65  66 S12       30.02S
LAPEER         FAIR      86  62  44 SW12      30.03S
MASON          CLOUDY    75  66  73 S9        30.03S
MONROE         MOSUNNY   85  68  55 SW8G18    30.04S
MT. CLEMENS    MOSUNNY   80  68  66 SE16      30.05R
PONTIAC        PTSUNNY   84  65  52 SW14G21   30.04S
PORT HOPE        N/A     82  68  62 VRB6      30.00S
PORT HURON     CLOUDY    81  68  65 S12       30.06S
TRI CITIES     CLOUDY    79  65  62 S15       30.01R
MIDLAND        FAIR      80  68  66 S7G18     29.99S
TROY           PTSUNNY   85  64  48 S8        30.06S
SAGINAW HB     PTSUNNY   79  64  61 S13       30.01S
$$
MIZ043>046-050>051-056>058-064>065-071>073-077>080-281700-
SOUTHWEST LOWER MICHIGAN

CITY           SKY/WX    TMP DP  RH WIND       PRES   REMARKS
BATTLE CREEK   CLOUDY    76  65  68 S14       30.01R
BENTON HARBOR  CLOUDY    78  65  63 S10       29.96R
BIG RAPIDS     CLOUDY    74  68  80 S9        29.95F
COLDWATER      CLOUDY    77  65  64 S8        30.03R
FREMONT        CLOUDY    75  67  77 SW16G25   29.94S
HOLLAND        CLOUDY    77  65  66 S15G26    29.96S
GRAND RAPIDS   CLOUDY    77  64  64 S13       29.98R
IONIA          FAIR      77  64  63 S14       29.99S
KALAMAZOO      CLOUDY    77  65  66 S8        30.00R
LUDINGTON      CLOUDY    74  65  74 S18G30    29.91S
MARSHALL       CLOUDY    78  67  68 S9G16     30.02S
MOUNT PLEASANT CLOUDY    76  66  71 S10       29.98S
MUSKEGON       CLOUDY    76  62  62 S21G31    29.94S
SOUTH HAVEN    CLOUDY    78  65  65 S13G23    29.97R
$$
MIZ016>042-281700-
NORTHERN LOWER MICHIGAN

CITY           SKY/WX    TMP DP  RH WIND       PRES   REMARKS
ALPENA         CLOUDY    74  66  76 E8        29.97F
BEAVER ISLAND  CLOUDY    74  65  74 S8        29.90S
BELLAIRE       CLOUDY    79  65  62 S14G22    29.91S
CADILLAC       CLOUDY    73  65  74 S9G24     29.95S
CHARLEVOIX     CLOUDY    78  65  63 S9        29.92F
FRANKFORT      CLOUDY    76  67  73 SW13G22   29.89R
GAYLORD        MOSUNNY   78  65  63 S16G22    29.95F
GRAYLING       CLOUDY    78  66  67 S15G23    29.96F
HARBOR SPRINGS CLOUDY    76  65  68 S8        29.91F
HOUGHTON LAKE  CLOUDY    75  64  68 S16       29.97F
MANISTEE       CLOUDY    75  63  64 S12G25    29.91R
OSCODA         CLOUDY    81  65  58 S13       29.98F
PELLSTON       CLOUDY    77  67  71 SE10      29.92F
ROGERS CITY    MOSUNNY   75  67  74 S6        29.96F
TRAVERSE CITY  CLOUDY    79  65  62 S13G28    29.88F
$$
MIZ007>008-015-281700-
EASTERN UPPER MICHIGAN

CITY           SKY/WX    TMP DP  RH WIND       PRES   REMARKS
KINROSS          N/A     72  66  83 SE12      29.93F
MACKINAC ISLAN CLOUDY    63  62  96 E5        29.92F
NEWBERRY       PTSUNNY   73  67  81 S15       29.89F
S. S. MARIE    CLOUDY    67  62  84 SE9       29.94S
MUNISING         N/A     69  65  86 S9G17     29.84S
$$
MIZ004>006-011>014-085-281700-
CENTRAL UPPER MICHIGAN

CITY           SKY/WX    TMP DP  RH WIND       PRES   REMARKS
MANISTIQUE     CLOUDY    62  60  94 SE6       29.88S
ESCANABA       MOSUNNY  N/A N/A N/A MISG        N/A
MENOMINEE      CLOUDY    70  64  83 S10       29.82F
SAWYER-GWINN   CLOUDY    64  64 100 S12       29.84S FOG
$$
MIZ001>003-009>011-084-281700-
WESTERN UPPER MICHIGAN

CITY           SKY/WX    TMP DP  RH WIND       PRES   REMARKS
IRON MOUNTAIN  LGT RAIN  65  64  97 E7        29.80F VSB 1/2
HOUGHTON       PTSUNNY   62  59  90 E5        29.80R
COPPER HARBOR    N/A     63  61  93 CALM      29.79S
IRONWOOD       CLOUDY    63  63 100 CALM      29.75S
$$

ABBREVIATIONS USED IN REMARKS
   TC - TEMPERATURE IN CELSIUS
  WCI - WIND CHILL INDEX
   HX - HEAT INDEX
  VSB - VISIBILITY





USA.gov is the U.S. government's official web portal to all federal, state and local government web resources and services.